Volver al catálogo

STARLINK-34981

ActivoComunicacionesVLEO
NORAD 65198·PAYLOAD·🇺🇸 United States

Lanzado Aug 14, 2025 desde Cape Canaveral Space Force Station

Loading…

Próximos Pases (próximas 24 horas)

TLE

ActualizadoSource: CelesTrak SupGP

Época: Sep 14, 2026, 22:56 UTC

1 65198C 25176A   26257.95604167 -.00001318  00000+0 -38947-4 0  2576
2 65198  53.1592 355.3391 0001171  84.9116 271.5146 15.34390079    12

Sigue STARLINK-34981 en tiempo real con AllMySat

Download on the App Store